Selinsgrove, PA

1:21 PM EDT on March 28, 2017 (GMT -0400)
Penn Valley

Weather History for KSEG - November, 2012

Change the Weather History Date:

Monday, November 12, 2012

  Actual Average (KIPT) Record (KIPT)
Temperature  
Mean Temperature 50 °F -  
Max Temperature 64 °F 48 °F 70 °F (1931)
Min Temperature 37 °F 30 °F 11 °F (1926)
Degree Days  
Heating Degree Days 14    
Moisture  
Dew Point 47 °F    
Average Humidity 79    
Maximum Humidity 97    
Minimum Humidity 65    
Precipitation  
Precipitation 0.15 in - - ()
Sea Level Pressure  
Sea Level Pressure 30.25 in    
Wind  
Wind Speed 5 mph (SSW)    
Max Wind Speed 22 mph    
Max Gust Speed 32 mph    
Visibility 8 miles    
Events Rain    
Averages and records for this station are not official NWS values.
T = Trace of Precipitation, MM = Missing Value Source: NWS Daily Summary

Daily Weather History Graph

Daily Weather History Graph

Search for Another Location

Airport or City:

Trip Planner

Search our weather history database for the weather conditions in past years. The results will help you decide how hot, cold, wet, or windy it might be!

Date:

Astronomy

Nov. 12, 2012 Rise Set
Actual Time 6:51 AM EST 4:51 PM EST
Civil Twilight 6:22 AM EST 5:20 PM EST
Nautical Twilight 5:49 AM EST 5:53 PM EST
Astronomical Twilight 5:16 AM EST 6:25 PM EST
Moon 5:13 AM EST (11/12) 3:55 PM EST (11/12)
Length of Visible Light 10h 58m
Length of Day
9h 59m
Waning Crescent, 2% of the Moon is Illuminated
Nov 12
Waning Crescent
Nov 13
New
Nov 20
First Quarter
Nov 28
Full
Dec 6
Last Quarter

Hourly Weather History & Observations

Time (EST) Temp. Dew Point Humidity Pressure Visibility Wind Dir Wind Speed Gust Speed Precip Events Conditions
12:53 AM 37.9 °F 37.0 °F 97% 30.40 in 4.0 mi Calm Calm - N/A   Clear
1:53 AM 37.9 °F 37.0 °F 97% 30.38 in 5.0 mi Calm Calm - N/A   Clear
2:53 AM 39.0 °F 37.0 °F 93% 30.38 in 5.0 mi Calm Calm - N/A   Clear
3:53 AM 37.9 °F 37.0 °F 97% 30.36 in 5.0 mi Calm Calm - N/A   Clear
4:53 AM 37.0 °F 36.0 °F 96% 30.37 in 5.0 mi Calm Calm - N/A   Clear
5:53 AM 37.0 °F 36.0 °F 96% 30.36 in 4.0 mi Calm Calm - N/A   Clear
6:53 AM 37.9 °F 37.0 °F 97% 30.36 in 5.0 mi Calm Calm - N/A   Clear
7:53 AM 43.0 °F 41.0 °F 93% 30.36 in 4.0 mi Calm Calm - N/A   Clear
8:53 AM 57.9 °F 48.9 °F 72% 30.35 in 10.0 mi SSW 6.9 mph - N/A   Clear
9:53 AM 60.1 °F 50.0 °F 69% 30.34 in 10.0 mi SSW 10.4 mph 17.3 mph N/A   Clear
10:53 AM 63.0 °F 51.1 °F 65% 30.32 in 10.0 mi SSW 9.2 mph 18.4 mph N/A   Clear
11:53 AM 64.0 °F 52.0 °F 65% 30.30 in 10.0 mi SSW 9.2 mph - 0.01 in   Clear
12:53 PM 64.0 °F 53.1 °F 67% 30.27 in 10.0 mi South 11.5 mph 26.5 mph N/A   Clear
1:53 PM 64.0 °F 53.1 °F 67% 30.24 in 10.0 mi South 15.0 mph 19.6 mph N/A   Mostly Cloudy
2:53 PM 63.0 °F 52.0 °F 67% 30.20 in 10.0 mi South 9.2 mph - N/A   Mostly Cloudy
3:53 PM 63.0 °F 52.0 °F 67% 30.16 in 10.0 mi SSE 6.9 mph - N/A   Overcast
4:53 PM 63.0 °F 53.1 °F 70% 30.16 in 10.0 mi South 10.4 mph 19.6 mph N/A   Overcast
5:53 PM 64.0 °F 53.1 °F 67% 30.14 in 10.0 mi South 15.0 mph 21.9 mph N/A   Overcast
6:53 PM 64.0 °F 54.0 °F 70% 30.13 in 10.0 mi South 11.5 mph 21.9 mph N/A   Overcast
7:53 PM 64.0 °F 54.0 °F 70% 30.10 in 10.0 mi South 9.2 mph 16.1 mph N/A   Overcast
8:53 PM 64.0 °F 54.0 °F 70% 30.09 in 10.0 mi South 15.0 mph 21.9 mph N/A   Overcast
9:53 PM 64.0 °F 55.0 °F 73% 30.09 in 10.0 mi South 11.5 mph 19.6 mph N/A   Overcast
10:34 PM 55.4 °F 48.2 °F 77% 30.14 in 6.0 mi WNW 21.9 mph 32.2 mph 0.02 in Rain Rain
10:48 PM 51.8 °F 48.2 °F 88% 30.16 in 2.0 mi West 13.8 mph 26.5 mph 0.10 in Rain Heavy Rain
10:53 PM 52.0 °F 48.0 °F 86% 30.16 in 3.0 mi West 15.0 mph 25.3 mph 0.11 in Rain Heavy Rain
11:53 PM 48.9 °F 43.0 °F 80% 30.23 in 7.0 mi WNW 9.2 mph 24.2 mph 0.03 in Rain Light Rain